Regional Weather Roundup
Issued by NWS

Home | Current Version | Previous Version | Text Only | Print | Product List | Glossary Off
Versions: 1 2 3 4 5 6 7 8 9 10 11 12 13 14 15 16 17 18 19 20 21 22 23 24 25 26 27 28 29 30 31 32 33 34 35 36 37 38 39 40 41 42 43 44 45 46

000
ASUS43 KMPX 190401
RWRMN
WEATHER ROUNDUP FOR MINNESOTA
NATIONAL WEATHER SERVICE TWIN CITIES/CHANHASSEN MN
1100 PM CDT WED APR 18 2018


NOTE: "FAIR" INDICATES FEW OR NO CLOUDS BELOW 12,000 FEET WITH NO
SIGNIFICANT WEATHER AND/OR OBSTRUCTIONS TO VISIBILITY. N/A MEANS
CURRENT SKY AND/OR WEATHER CONDITIONS ARE NOT AVAILABLE.

MNZ060>063-068>070-190500-
   Twin Cities Metro

CITY           SKY/WX    TMP DP  RH WIND       PRES   REMARKS
TWIN CITIES    CLOUDY    37  20  50 NE14      30.18R
ST PAUL        FAIR      37  16  42 N10       30.20R
CRYSTAL        FAIR      38  14  37 NE13G21   30.18R
BLAINE         FAIR      37  16  41 NE10      30.19R
LAKEVILLE      FAIR      36  25  64 NE10G17   30.16R
EDEN PRAIRIE   FAIR      39  16  39 NE9       30.16R
SOUTH ST PAUL  FAIR      37  16  41 N9        30.18R
LAKE ELMO      FAIR      36  18  48 N10G16    30.19R
$$
MNZ001>005-007-008-013>017-022>024-027-028-190500-
   Northwest Minnesota

CITY           SKY/WX    TMP DP  RH WIND       PRES   REMARKS
BEMIDJI        FAIR      29  17  59 NW6       30.24R WCI  23
HALLOCK        FAIR      37  23  56 CALM      30.27S
ROSEAU         FAIR      36  18  48 CALM      30.27S
WARROAD        FAIR      30  16  55 CALM      30.28R
THIEF RVR FALL FAIR      37  17  44 NE7       30.27R
CROOKSTON      FAIR      37  23  56 E6          N/A
FOSSTON        FAIR      34  14  44 NE6       30.26R WCI  29
DETROIT LAKES  FAIR      37  23  56 CALM      30.25R
MOORHEAD       FAIR      34  30  86 NW6       30.27R WCI  29
PARK RAPIDS    FAIR      37  15  40 N5        30.22R
MAHNOMEN       FAIR      35  18  49 E6        30.24R WCI  30
$$
MNZ006-009>011-018-025>026-190500-
   North Central Minnesota

CITY           SKY/WX    TMP DP  RH WIND       PRES   REMARKS
BAUDETTE       FAIR      32  20  61 CALM      30.26R
FLAG ISLAND    FAIR      36   5  27 E6        30.26S
INTL FALLS     FAIR      29  19  66 CALM      30.25R
WASKISH        FAIR      28  19  69 CALM      30.25S
BIG FORK       FAIR      28  16  59 CALM      30.24R
LONGVILLE      FAIR      28  21  74 CALM      30.22R
GRAND RAPIDS   FAIR      30  19  63 SE3       30.24R
CRANE LAKE     FAIR      23  19  86 CALM      30.27R
ORR            FAIR      28  12  50 CALM      30.22R
COOK           FAIR      27  18  69 CALM      30.23R
WALKER         FAIR      37  10  32 NE5       30.23R
$$
MNZ012-019>021-037-190500-
   Northeast Minnesota

CITY           SKY/WX    TMP DP  RH WIND       PRES   REMARKS
DULUTH         FAIR      28  12  51 N7        30.21R WCI  21
ELY            FAIR      27  18  69 CALM      30.22R
HIBBING        FAIR      24  17  74 NW5       30.22R WCI  18
EVELETH        FAIR      28  19  67 CALM      30.23R
DULUTH HARBOR  FAIR      32  25  74 CALM      30.24R
TWO HARBORS    FAIR      30  18  59 W5        30.20R WCI  25
SILVER BAY     FAIR      27  19  74 CALM      30.20R
GRAND MARAIS     N/A     32  17  54 CALM      30.21R
G MARAIS ARPRT FAIR      32   9  37 N7        30.19R WCI  26
$$
MNZ029>031-032-039>041-046>048-054>057-064-190500-
   West Central Minnesota

CITY           SKY/WX    TMP DP  RH WIND       PRES   REMARKS
FERGUS FALLS   FAIR      41  23  48 CALM      30.24R
WHEATON        CLOUDY    36  28  75 CALM      30.27R
MORRIS         CLOUDY    36  28  75 NW7       30.23R
ALEXANDRIA     FAIR      39  21  48 N6        30.22R
ELBOW LAKE     FAIR      34  28  77 NW5       30.25R WCI  30
WADENA         FAIR      30  19  64 NW5       30.23R WCI  25
GLENWOOD       FAIR      36  27  69 NW7       30.23R
APPLETON       CLOUDY    34  28  80 N3        30.23R
BENSON         PTCLDY    34  27  75 CALM      30.25R
ORTONVILLE     CLOUDY    37  28  70 NW7       30.24R
MADISON        PTCLDY    37  30  75 NW7       30.23R
WILLMAR        FAIR      34  27  75 NW6       30.25R WCI  29
$$
MNZ033>034-036-042>043-049>051-058-059-190500-
   Central Minnesota

CITY           SKY/WX    TMP DP  RH WIND       PRES   REMARKS
ST CLOUD       FAIR      30  18  60 N3        30.21R
SAUK CENTRE    FAIR      32  23  69 E3        30.22R
PAYNESVILLE    FAIR      30  27  89 CALM      30.22R
AITKIN         FAIR      25  19  80 CALM      30.22R
PINE RIVER     FAIR      34  14  44 N5        30.24R WCI  30
BRAINERD       FAIR      38  12  34 E5        30.22R
STAPLES        FAIR      30  16  55 CALM      30.22R
LONG PRAIRIE   FAIR      32  23  69 CALM      30.22R
LITTLE FALLS   FAIR      36   5  27 NE5       30.22R
LITCHFIELD     FAIR      37  18  44 NE9       30.20R
BUFFALO        FAIR      36  13  39 N8        30.21R
MAPLE LAKE     FAIR      37  17  44 N7        30.21R
HUTCHINSON     FAIR      34  18  51 N9        30.20R WCI  27
$$
MNZ037-044-045-052-053-190500-
   East Central Minnesota

CITY           SKY/WX    TMP DP  RH WIND       PRES   REMARKS
PRINCETON      FAIR      37  14  38 NE5       30.22R
MORA           FAIR      32  14  47 NE3       30.23R
RUSH CITY      FAIR      32  19  58 N5        30.20S WCI  27
MOOSE LAKE     FAIR      30  10  43 CALM      30.21R
HINCKLEY       FAIR      32  18  55 N6        30.21R WCI  26
CLOQUET        FAIR      27  14  59 NW5       30.21S WCI  21
MCGREGOR       FAIR      28  19  69 N3        30.23R
$$
MNZ071>073-080-081-089-090-097-098-190500-
   Southwest Minnesota

CITY           SKY/WX    TMP DP  RH WIND       PRES   REMARKS
MONTEVIDEO     PTCLDY    36  28  75 N3        30.24R
GRANITE FALLS  CLOUDY    33  29  87 W6        30.25R WCI  27
CANBY          CLOUDY    37  30  77 NW7       30.25R
MARSHALL       CLOUDY    35  27  72 N10       30.24R WCI  27
REDWOOD FALLS  CLOUDY    32  26  78 W8        30.21R WCI  25
OLIVIA         CLOUDY    34  27  75 NW6       30.21R WCI  29
PIPESTONE      PTCLDY   N/A N/A N/A N10       30.21R
WINDOM           N/A     28  14  54 CALM      30.19S
WORTHINGTON    CLOUDY    27  24  89 NW9       30.21R WCI  18
JACKSON        CLOUDY    32  27  80 W10       30.19S WCI  24
TRACY          CLOUDY    35  28  76 N9        30.21R WCI  27
SLAYTON        CLOUDY    26  23  87 NW9       30.21R WCI  17
$$
MNZ065>067-074>077-082>085-091>093-190500-
   South Central Minnesota

CITY           SKY/WX    TMP DP  RH WIND       PRES   REMARKS
MANKATO        FAIR      30  26  85 NW8       30.17R WCI  22
NEW ULM        CLOUDY    27  23  86 NW7       30.19R WCI  19
ST JAMES       CLOUDY    28  27  93 W9        30.20R WCI  20
FAIRMONT       CLOUDY    30  28  92 NW14      30.18R WCI  19
GLENCOE        FAIR      32  22  66 NW7       30.17R WCI  26
OWATONNA       FOG       27  25  93 CALM      30.14R VSB 1/2
WASECA         FAIR      27  27 100 NW3       30.17R
ALBERT LEA     FAIR      28  28 100 NW3       30.15R FOG
$$
MNZ078>079-086>088-094>096-190500-
   Southeast Minnesota

CITY           SKY/WX    TMP DP  RH WIND       PRES   REMARKS
ROCHESTER      FAIR      28  27  96 NW10      30.12R WCI  19
RED WING       FAIR      36  18  48 E8        30.15R
STANTON        FAIR      34  25  69 NE10      30.15R WCI  26
DODGE CENTER   FAIR      28  27  93 N8        30.13R WCI  20
WINONA         FAIR      32  32 100 NW5       30.11R WCI  27
AUSTIN         FAIR      30  28  93 NW6       30.13R WCI  24
PRESTON        MOCLDY    29  28  94 NW10      30.11R WCI  20
$$
ABBREVIATIONS USED IN REMARKS
   TC - TEMPERATURES IN CELSIUS
  WCI - WIND CHILL INDEX
   HX - HEAT INDEX
  VSB - VISIBILITY
$$




USA.gov is the U.S. government's official web portal to all federal, state and local government web resources and services.